Year,Month,Day,Hour,Minute,Value (Times are PST for temperature in C)
2015,09,25,00,00,10.10
2015,09,25,00,01,10.10
2015,09,25,00,02,10.10
2015,09,25,00,03,10.10
2015,09,25,00,04,10.10
2015,09,25,00,05,10.10
2015,09,25,00,06,10.10
2015,09,25,00,07,10.10
2015,09,25,00,08,10.10
2015,09,25,00,09,10.00
2015,09,25,00,10,10.00
2015,09,25,00,11,10.00
2015,09,25,00,12,9.90
2015,09,25,00,13,9.90
2015,09,25,00,14,9.90
2015,09,25,00,15,9.90
2015,09,25,00,16,9.90
2015,09,25,00,17,9.90
2015,09,25,00,18,9.90
2015,09,25,00,19,9.90
2015,09,25,00,20,9.90
2015,09,25,00,21,9.90
2015,09,25,00,22,9.90
2015,09,25,00,23,9.90
2015,09,25,00,24,9.80
2015,09,25,00,25,9.80
2015,09,25,00,26,9.90
2015,09,25,00,27,9.90
2015,09,25,00,28,9.90
2015,09,25,00,29,9.90
2015,09,25,00,30,9.90
2015,09,25,00,31,9.90
2015,09,25,00,32,9.90
2015,09,25,00,33,9.90
2015,09,25,00,34,9.90
2015,09,25,00,35,9.90
2015,09,25,00,36,9.90
2015,09,25,00,37,9.90
2015,09,25,00,38,9.90
2015,09,25,00,39,9.90
2015,09,25,00,40,9.90
2015,09,25,00,41,9.90
2015,09,25,00,42,9.90
2015,09,25,00,43,9.80
2015,09,25,00,44,9.80
2015,09,25,00,45,9.80
2015,09,25,00,46,9.80
2015,09,25,00,47,9.80
2015,09,25,00,48,9.80
2015,09,25,00,49,9.80
2015,09,25,00,50,9.80
2015,09,25,00,51,9.80
2015,09,25,00,52,9.80
2015,09,25,00,53,9.80
2015,09,25,00,54,9.80
2015,09,25,00,55,9.80
2015,09,25,00,56,9.80
2015,09,25,00,57,9.80
2015,09,25,00,58,9.80
2015,09,25,00,59,9.80
2015,09,25,01,00,9.80
2015,09,25,01,01,9.80
2015,09,25,01,02,9.80
2015,09,25,01,03,9.80
2015,09,25,01,04,9.80
2015,09,25,01,05,9.80
2015,09,25,01,06,9.80
2015,09,25,01,07,9.80
2015,09,25,01,08,9.80
2015,09,25,01,09,9.80
2015,09,25,01,10,9.90
2015,09,25,01,11,9.90
2015,09,25,01,12,9.90
2015,09,25,01,13,9.90
2015,09,25,01,14,9.90
2015,09,25,01,15,9.90
2015,09,25,01,16,9.90
2015,09,25,01,17,9.90
2015,09,25,01,18,9.90
2015,09,25,01,19,9.90
2015,09,25,01,20,9.90
2015,09,25,01,21,9.90
2015,09,25,01,22,10.00
2015,09,25,01,23,9.90
2015,09,25,01,24,10.00
2015,09,25,01,25,10.00
2015,09,25,01,26,10.00
2015,09,25,01,27,10.00
2015,09,25,01,28,10.00
2015,09,25,01,29,10.00
2015,09,25,01,30,10.00
2015,09,25,01,31,10.00
2015,09,25,01,32,10.00
2015,09,25,01,33,10.10
2015,09,25,01,34,10.10
2015,09,25,01,35,10.10
2015,09,25,01,36,10.10
2015,09,25,01,37,10.10
2015,09,25,01,38,10.10
2015,09,25,01,39,10.10
2015,09,25,01,40,10.10
2015,09,25,01,41,10.10
2015,09,25,01,42,10.10
2015,09,25,01,43,10.10
2015,09,25,01,44,10.10
2015,09,25,01,45,10.10
2015,09,25,01,46,10.10
2015,09,25,01,47,10.10
2015,09,25,01,48,10.10
2015,09,25,01,49,10.00
2015,09,25,01,50,10.00
2015,09,25,01,51,10.00
2015,09,25,01,52,10.00
2015,09,25,01,53,10.00
2015,09,25,01,54,9.90
2015,09,25,01,55,9.90
2015,09,25,01,56,9.90
2015,09,25,01,57,9.90
2015,09,25,01,58,9.90
2015,09,25,01,59,9.90
2015,09,25,02,00,9.90
2015,09,25,02,01,9.90
2015,09,25,02,02,9.90
2015,09,25,02,03,9.90
2015,09,25,02,04,9.90
2015,09,25,02,05,9.90
2015,09,25,02,06,9.90
2015,09,25,02,07,9.90
2015,09,25,02,08,9.90
2015,09,25,02,09,9.80
2015,09,25,02,10,9.80
2015,09,25,02,11,9.80
2015,09,25,02,12,9.80
2015,09,25,02,13,9.80
2015,09,25,02,14,9.80
2015,09,25,02,15,9.80
2015,09,25,02,16,9.80
2015,09,25,02,17,9.80
2015,09,25,02,18,9.70
2015,09,25,02,19,9.70
2015,09,25,02,20,9.70
2015,09,25,02,21,9.70
2015,09,25,02,22,9.70
2015,09,25,02,23,9.70
2015,09,25,02,24,9.70
2015,09,25,02,25,9.70
2015,09,25,02,26,9.70
2015,09,25,02,27,9.70
2015,09,25,02,28,9.70
2015,09,25,02,29,9.70
2015,09,25,02,30,9.70
2015,09,25,02,31,9.70
2015,09,25,02,32,9.70
2015,09,25,02,33,9.70
2015,09,25,02,34,9.70
2015,09,25,02,35,9.70
2015,09,25,02,36,9.70
2015,09,25,02,37,9.70
2015,09,25,02,38,9.70
2015,09,25,02,39,9.70
2015,09,25,02,40,9.70
2015,09,25,02,41,9.70
2015,09,25,02,42,9.70
2015,09,25,02,43,9.70
2015,09,25,02,44,9.70
2015,09,25,02,45,9.70
2015,09,25,02,46,9.70
2015,09,25,02,47,9.70
2015,09,25,02,48,9.70
2015,09,25,02,49,9.70
2015,09,25,02,50,9.70
2015,09,25,02,51,9.70
2015,09,25,02,52,9.70
2015,09,25,02,53,9.70
2015,09,25,02,54,9.70
2015,09,25,02,55,9.70
2015,09,25,02,56,9.70
2015,09,25,02,57,9.70
2015,09,25,02,58,9.70
2015,09,25,02,59,9.70
2015,09,25,03,00,9.70
2015,09,25,03,01,9.70
2015,09,25,03,02,9.70
2015,09,25,03,03,9.70
2015,09,25,03,04,9.70
2015,09,25,03,05,9.70
2015,09,25,03,06,9.70
2015,09,25,03,07,9.70
2015,09,25,03,08,9.70
2015,09,25,03,09,9.70
2015,09,25,03,10,9.70
2015,09,25,03,11,9.60
2015,09,25,03,12,9.70
2015,09,25,03,13,9.60
2015,09,25,03,14,9.60
2015,09,25,03,15,9.60
2015,09,25,03,16,9.60
2015,09,25,03,17,9.60
2015,09,25,03,18,9.60
2015,09,25,03,19,9.60
2015,09,25,03,20,9.60
2015,09,25,03,21,9.60
2015,09,25,03,22,9.60
2015,09,25,03,23,9.60
2015,09,25,03,24,9.60
2015,09,25,03,25,9.60
2015,09,25,03,26,9.60
2015,09,25,03,27,9.60
2015,09,25,03,28,9.60
2015,09,25,03,29,9.60
2015,09,25,03,30,9.60
2015,09,25,03,31,9.60
2015,09,25,03,32,9.60
2015,09,25,03,33,9.60
2015,09,25,03,34,9.50
2015,09,25,03,35,9.50
2015,09,25,03,36,9.50
2015,09,25,03,37,9.50
2015,09,25,03,38,9.50
2015,09,25,03,39,9.50
2015,09,25,03,40,9.50
2015,09,25,03,41,9.50
2015,09,25,03,42,9.50
2015,09,25,03,43,9.50
2015,09,25,03,44,9.50
2015,09,25,03,45,9.50
2015,09,25,03,46,9.50
2015,09,25,03,47,9.40
2015,09,25,03,48,9.40
2015,09,25,03,49,9.40
2015,09,25,03,50,9.40
2015,09,25,03,51,9.40
2015,09,25,03,52,9.40
2015,09,25,03,53,9.40
2015,09,25,03,54,9.40
2015,09,25,03,55,9.40
2015,09,25,03,56,9.40
2015,09,25,03,57,9.40
2015,09,25,03,58,9.40
2015,09,25,03,59,9.40
2015,09,25,04,00,9.30
2015,09,25,04,01,9.30
2015,09,25,04,02,9.30
2015,09,25,04,03,9.30
2015,09,25,04,04,9.30
2015,09,25,04,05,9.30
2015,09,25,04,06,9.30
2015,09,25,04,07,9.30
2015,09,25,05,02,9.20
2015,09,25,05,03,9.20
2015,09,25,05,04,9.20
2015,09,25,05,05,9.20
2015,09,25,05,06,9.20
2015,09,25,05,07,9.20
2015,09,25,05,08,9.20
2015,09,25,05,09,9.20
2015,09,25,05,10,9.20
2015,09,25,05,11,9.20
2015,09,25,05,12,9.20
2015,09,25,05,13,9.20
2015,09,25,05,14,9.20
2015,09,25,05,15,9.20
2015,09,25,05,16,9.20
2015,09,25,05,17,9.20
2015,09,25,05,18,9.20
2015,09,25,05,19,9.20
2015,09,25,05,20,9.20
2015,09,25,05,21,9.20
2015,09,25,05,22,9.20
2015,09,25,05,23,9.20
2015,09,25,05,24,9.20
2015,09,25,05,25,9.20
2015,09,25,05,26,9.20
2015,09,25,05,27,9.20
2015,09,25,05,28,9.20
2015,09,25,05,29,9.20
2015,09,25,05,30,9.20
2015,09,25,05,31,9.20
2015,09,25,05,32,9.20
2015,09,25,05,33,9.20
2015,09,25,05,34,9.20
2015,09,25,05,35,9.20
2015,09,25,05,36,9.20
2015,09,25,05,37,9.20
2015,09,25,05,38,9.20
2015,09,25,05,39,9.20
2015,09,25,05,40,9.20
2015,09,25,05,41,9.20
2015,09,25,05,42,9.20
2015,09,25,05,43,9.10
2015,09,25,05,44,9.10
2015,09,25,05,45,9.10
2015,09,25,05,46,9.10
2015,09,25,05,47,9.10
2015,09,25,05,48,9.10
2015,09,25,05,49,9.10
2015,09,25,05,50,9.10
2015,09,25,05,51,9.10
2015,09,25,05,52,9.10
2015,09,25,05,53,9.00
2015,09,25,05,54,9.10
2015,09,25,05,55,9.10
2015,09,25,05,56,9.00
2015,09,25,05,57,9.00
2015,09,25,05,58,9.00
2015,09,25,05,59,9.00
2015,09,25,06,00,9.00
2015,09,25,06,01,9.00
2015,09,25,06,02,9.00
2015,09,25,06,03,9.00
2015,09,25,06,04,9.00
2015,09,25,06,05,8.90
2015,09,25,06,06,8.90
2015,09,25,06,07,8.90
2015,09,25,06,08,8.90
2015,09,25,06,09,8.90
2015,09,25,06,10,8.90
2015,09,25,06,11,8.90
2015,09,25,06,12,8.90
2015,09,25,06,13,8.80
2015,09,25,06,14,8.80
2015,09,25,06,15,8.80
2015,09,25,06,16,8.80
2015,09,25,06,17,8.80
2015,09,25,06,18,8.80
2015,09,25,06,19,8.80
2015,09,25,06,20,8.80
2015,09,25,06,21,8.80
2015,09,25,06,22,8.80
2015,09,25,06,23,8.80
2015,09,25,06,24,8.70
2015,09,25,06,25,8.70
2015,09,25,06,26,8.70
2015,09,25,06,27,8.70
2015,09,25,06,28,8.70
2015,09,25,06,29,8.60
2015,09,25,06,30,8.60
2015,09,25,06,31,8.60
2015,09,25,06,32,8.60
2015,09,25,06,33,8.60
2015,09,25,06,34,8.60
2015,09,25,06,35,8.60
2015,09,25,06,36,8.60
2015,09,25,06,37,8.60
2015,09,25,06,38,8.60
2015,09,25,06,39,8.60
2015,09,25,06,40,8.60
2015,09,25,06,41,8.60
2015,09,25,06,42,8.60
2015,09,25,06,43,8.60
2015,09,25,06,44,8.60
2015,09,25,06,45,8.60
2015,09,25,06,46,8.70
2015,09,25,06,47,8.60
2015,09,25,06,48,8.60
2015,09,25,06,49,8.60
2015,09,25,06,50,8.60
2015,09,25,06,51,8.60
2015,09,25,06,52,8.60
2015,09,25,06,53,8.60
2015,09,25,06,54,8.60
2015,09,25,06,55,8.60
2015,09,25,06,56,8.60
2015,09,25,06,57,8.60
2015,09,25,06,58,8.60
2015,09,25,06,59,8.60
2015,09,25,07,00,8.60
2015,09,25,07,01,8.60
2015,09,25,07,02,8.60
2015,09,25,07,03,8.50
2015,09,25,07,04,8.50
2015,09,25,07,05,8.50
2015,09,25,07,06,8.50
2015,09,25,07,07,8.50
2015,09,25,07,08,8.40
2015,09,25,07,09,8.40
2015,09,25,07,10,8.40
2015,09,25,07,11,8.40
2015,09,25,07,12,8.40
2015,09,25,07,13,8.40
2015,09,25,07,14,8.40
2015,09,25,07,15,8.30
2015,09,25,07,16,8.30
2015,09,25,07,17,8.30
2015,09,25,07,18,8.30
2015,09,25,07,19,8.30
2015,09,25,07,20,8.30
2015,09,25,07,21,8.30
2015,09,25,07,22,8.30
2015,09,25,07,23,8.30
2015,09,25,07,24,8.30
2015,09,25,07,25,8.20
2015,09,25,07,26,8.20
2015,09,25,07,27,8.20
2015,09,25,07,28,8.20
2015,09,25,07,29,8.20
2015,09,25,07,30,8.20
2015,09,25,07,31,8.20
2015,09,25,07,32,8.20
2015,09,25,07,33,8.20
2015,09,25,07,34,8.20
2015,09,25,07,35,8.20
2015,09,25,07,36,8.20
2015,09,25,07,37,8.20
2015,09,25,07,38,8.20
2015,09,25,07,39,8.10
2015,09,25,07,40,8.10
2015,09,25,07,41,8.10
2015,09,25,07,42,8.10
2015,09,25,07,43,8.10
2015,09,25,07,44,8.10
2015,09,25,07,45,8.10
2015,09,25,07,46,8.10
2015,09,25,07,47,8.10
2015,09,25,07,48,8.10
2015,09,25,07,49,8.10
2015,09,25,07,50,8.10
2015,09,25,07,51,8.10
2015,09,25,07,52,8.10
2015,09,25,07,53,8.10
2015,09,25,07,54,8.10
2015,09,25,07,55,8.10
2015,09,25,07,56,8.10
2015,09,25,07,57,8.10
2015,09,25,07,58,8.10
2015,09,25,07,59,8.10
2015,09,25,08,00,8.10
2015,09,25,08,01,8.10
2015,09,25,08,02,8.10
2015,09,25,08,03,8.10
2015,09,25,08,04,8.20
2015,09,25,08,05,8.20
2015,09,25,08,06,8.20
2015,09,25,08,07,8.20
2015,09,25,08,08,8.20
2015,09,25,08,09,8.20
2015,09,25,08,10,8.20
2015,09,25,08,11,8.20
2015,09,25,08,12,8.20
2015,09,25,08,13,8.20
2015,09,25,08,14,8.20
2015,09,25,08,15,8.20
2015,09,25,08,16,8.20
2015,09,25,08,17,8.20
2015,09,25,08,18,8.20
2015,09,25,08,19,8.20
2015,09,25,08,20,8.20
2015,09,25,08,21,8.20
2015,09,25,08,22,8.20
2015,09,25,08,23,8.20
2015,09,25,08,24,8.20
2015,09,25,08,25,8.20
2015,09,25,08,26,8.20
2015,09,25,08,27,8.20
2015,09,25,08,28,8.20
2015,09,25,08,29,8.20
2015,09,25,08,30,8.20
2015,09,25,08,31,8.20
2015,09,25,08,32,8.20
2015,09,25,08,33,8.20
2015,09,25,08,34,8.20
2015,09,25,08,35,8.20
2015,09,25,08,36,8.20
2015,09,25,08,37,8.20
2015,09,25,08,38,8.20
2015,09,25,08,39,8.20
2015,09,25,08,40,8.20
2015,09,25,08,41,8.20
2015,09,25,08,42,8.20
2015,09,25,08,43,8.20
2015,09,25,08,44,8.20
2015,09,25,08,45,8.20
2015,09,25,08,46,8.20
2015,09,25,08,47,8.20
2015,09,25,08,48,8.20
2015,09,25,08,49,8.20
2015,09,25,08,50,8.20
2015,09,25,08,51,8.20
2015,09,25,08,52,8.30
2015,09,25,08,53,8.30
2015,09,25,08,54,8.30
2015,09,25,08,55,8.30
2015,09,25,08,56,8.30
2015,09,25,08,57,8.30
2015,09,25,08,58,8.30
2015,09,25,08,59,8.30
2015,09,25,09,00,8.30
2015,09,25,09,01,8.30
2015,09,25,09,02,8.30
2015,09,25,09,03,8.30
2015,09,25,09,04,8.30
2015,09,25,09,05,8.30
2015,09,25,09,06,8.30
2015,09,25,09,07,8.30
2015,09,25,09,08,8.30
2015,09,25,09,09,8.30
2015,09,25,09,10,8.30
2015,09,25,09,11,8.30
2015,09,25,09,12,8.30
2015,09,25,09,13,8.30
2015,09,25,09,14,8.20
2015,09,25,09,15,8.20
2015,09,25,09,16,8.20
2015,09,25,09,17,8.20
2015,09,25,09,18,8.20
2015,09,25,09,19,8.20
2015,09,25,09,20,8.20
2015,09,25,09,21,8.20
2015,09,25,09,22,8.20
2015,09,25,09,23,8.20
2015,09,25,09,24,8.20
2015,09,25,09,25,8.30
2015,09,25,09,26,8.30
2015,09,25,09,27,8.30
2015,09,25,09,28,8.30
2015,09,25,09,29,8.30
2015,09,25,09,30,8.30
2015,09,25,09,31,8.40
2015,09,25,09,32,8.40
2015,09,25,09,33,8.40
2015,09,25,09,34,8.40
2015,09,25,09,35,8.40
2015,09,25,09,36,8.50
2015,09,25,09,37,8.50
2015,09,25,09,38,8.50
2015,09,25,09,39,8.60
2015,09,25,09,40,8.60
2015,09,25,09,41,8.60
2015,09,25,09,42,8.60
2015,09,25,09,43,8.60
2015,09,25,09,44,8.60
2015,09,25,09,45,8.60
2015,09,25,09,46,8.60
2015,09,25,09,47,8.70
2015,09,25,09,48,8.80
2015,09,25,09,49,8.80
2015,09,25,09,50,8.90
2015,09,25,09,51,9.00
2015,09,25,09,52,9.00
2015,09,25,09,53,9.00
2015,09,25,09,54,9.00
2015,09,25,09,55,9.00
2015,09,25,09,56,9.00
2015,09,25,09,57,9.00
2015,09,25,09,58,9.00
2015,09,25,09,59,9.10
2015,09,25,10,00,9.10
2015,09,25,10,01,9.10
2015,09,25,10,02,9.20
2015,09,25,10,03,9.20
2015,09,25,10,04,9.20
2015,09,25,10,05,9.30
2015,09,25,10,06,9.30
2015,09,25,10,07,9.30
2015,09,25,10,08,9.30
2015,09,25,10,09,9.30
2015,09,25,10,10,9.30
2015,09,25,10,11,9.30
2015,09,25,10,12,9.30
2015,09,25,10,13,9.40
2015,09,25,10,14,9.40
2015,09,25,10,15,9.40
2015,09,25,10,16,9.50
2015,09,25,10,17,9.50
2015,09,25,10,18,9.60
2015,09,25,10,19,9.60
2015,09,25,10,20,9.70
2015,09,25,10,21,9.70
2015,09,25,10,22,9.70
2015,09,25,10,23,9.70
2015,09,25,10,24,9.80
2015,09,25,10,25,9.80
2015,09,25,10,26,9.80
2015,09,25,10,27,9.90
2015,09,25,10,28,10.00
2015,09,25,10,29,10.10
2015,09,25,10,30,10.20
2015,09,25,10,31,10.30
2015,09,25,10,32,10.30
2015,09,25,10,33,10.30
2015,09,25,10,34,10.30
2015,09,25,10,35,10.40
2015,09,25,10,36,10.50
2015,09,25,10,37,10.60
2015,09,25,10,38,10.60
2015,09,25,10,39,10.60
2015,09,25,10,40,10.60
2015,09,25,10,41,10.50
2015,09,25,10,42,10.60
2015,09,25,10,43,10.60
2015,09,25,10,44,10.60
2015,09,25,10,45,10.60
2015,09,25,10,46,10.70
2015,09,25,10,47,10.70
2015,09,25,10,48,10.70
2015,09,25,10,49,10.60
2015,09,25,10,50,10.60
2015,09,25,10,51,10.60
2015,09,25,10,52,10.60
2015,09,25,10,53,10.70
2015,09,25,10,54,10.70
2015,09,25,10,55,10.70
2015,09,25,10,56,10.70
2015,09,25,10,57,10.70
2015,09,25,10,58,10.70
2015,09,25,10,59,10.70
2015,09,25,11,00,10.80
2015,09,25,11,01,10.80
2015,09,25,11,02,10.80
2015,09,25,11,03,10.80
2015,09,25,11,04,10.80
2015,09,25,11,05,10.90
2015,09,25,11,06,10.90
2015,09,25,11,07,10.90
2015,09,25,11,08,10.90
2015,09,25,11,09,11.00
2015,09,25,11,10,11.00
2015,09,25,11,11,11.00
2015,09,25,11,12,11.10
2015,09,25,11,13,11.10
2015,09,25,11,14,11.10
2015,09,25,11,15,11.10
2015,09,25,11,16,11.10
2015,09,25,11,17,11.10
2015,09,25,11,18,11.10
2015,09,25,11,19,11.10
2015,09,25,11,20,11.10
2015,09,25,11,21,11.10
2015,09,25,11,22,11.10
2015,09,25,11,23,11.20
2015,09,25,11,24,11.20
2015,09,25,11,25,11.20
2015,09,25,11,26,11.20
2015,09,25,11,27,11.30
2015,09,25,11,28,11.30
2015,09,25,11,29,11.30
2015,09,25,11,30,11.30
2015,09,25,11,31,11.30
2015,09,25,11,32,11.30
2015,09,25,11,33,11.30
2015,09,25,11,34,11.30
2015,09,25,11,35,11.30
2015,09,25,11,36,11.30
2015,09,25,11,37,11.40
2015,09,25,11,38,11.40
2015,09,25,11,39,11.50
2015,09,25,11,40,11.50
2015,09,25,11,41,11.60
2015,09,25,11,42,11.60
2015,09,25,11,43,11.60
2015,09,25,11,44,11.70
2015,09,25,11,45,11.60
2015,09,25,11,46,11.60
2015,09,25,11,47,11.60
2015,09,25,11,48,11.50
2015,09,25,11,49,11.50
2015,09,25,11,50,11.40
2015,09,25,11,51,11.40
2015,09,25,11,52,11.40
2015,09,25,11,53,11.40
2015,09,25,11,54,11.50
2015,09,25,11,55,11.50
2015,09,25,11,56,11.60
2015,09,25,11,57,11.60
2015,09,25,11,58,11.60
2015,09,25,11,59,11.60
2015,09,25,12,00,11.70
2015,09,25,12,01,11.70
2015,09,25,12,02,11.70
2015,09,25,12,03,11.70
2015,09,25,12,04,11.70
2015,09,25,12,05,11.70
2015,09,25,12,06,11.70
2015,09,25,12,07,11.80
2015,09,25,12,08,11.90
2015,09,25,12,09,11.90
2015,09,25,12,10,12.00
2015,09,25,12,11,12.20
2015,09,25,12,12,12.30
2015,09,25,12,13,12.40
2015,09,25,12,14,12.50
2015,09,25,12,15,12.60
2015,09,25,12,16,12.60
2015,09,25,12,17,12.70
2015,09,25,12,18,12.80
2015,09,25,12,19,12.80
2015,09,25,12,20,12.80
2015,09,25,12,21,12.80
2015,09,25,12,22,12.80
2015,09,25,12,23,12.90
2015,09,25,12,24,12.90
2015,09,25,12,25,12.90
2015,09,25,12,26,12.90
2015,09,25,12,27,12.90
2015,09,25,12,28,12.90
2015,09,25,12,29,12.90
2015,09,25,12,30,12.90
2015,09,25,12,31,13.00
2015,09,25,12,32,13.00
2015,09,25,12,33,13.00
2015,09,25,12,34,13.00
2015,09,25,12,35,12.90
2015,09,25,12,36,12.90
2015,09,25,12,37,12.90
2015,09,25,12,38,12.80
2015,09,25,12,39,12.70
2015,09,25,12,40,12.60
2015,09,25,12,41,12.60
2015,09,25,12,42,12.50
2015,09,25,12,43,12.50
2015,09,25,12,44,12.40
2015,09,25,12,45,12.40
2015,09,25,12,46,12.30
2015,09,25,12,47,12.30
2015,09,25,12,48,12.30
2015,09,25,12,49,12.30
2015,09,25,12,50,12.30
2015,09,25,12,51,12.30
2015,09,25,12,52,12.20
2015,09,25,12,53,12.20
2015,09,25,12,54,12.20
2015,09,25,12,55,12.20
2015,09,25,12,56,12.20
2015,09,25,12,57,12.20
2015,09,25,12,58,12.20
2015,09,25,12,59,12.20
2015,09,25,13,00,12.20
2015,09,25,13,01,12.20
2015,09,25,13,02,12.30
2015,09,25,13,03,12.30
2015,09,25,13,04,12.30
2015,09,25,13,05,12.30
2015,09,25,13,06,12.40
2015,09,25,13,07,12.40
2015,09,25,13,08,12.40
2015,09,25,13,09,12.50
2015,09,25,13,10,12.50
2015,09,25,13,11,12.60
2015,09,25,13,12,12.60
2015,09,25,13,13,12.60
2015,09,25,13,14,12.60
2015,09,25,13,15,12.60
2015,09,25,13,16,12.60
2015,09,25,13,17,12.60
2015,09,25,13,18,12.60
2015,09,25,13,19,12.60
2015,09,25,13,20,12.60
2015,09,25,13,21,12.60
2015,09,25,13,22,12.70
2015,09,25,13,23,12.70
2015,09,25,13,24,12.70
2015,09,25,13,25,12.70
2015,09,25,13,26,12.70
2015,09,25,13,27,12.80
2015,09,25,13,28,12.80
2015,09,25,13,29,12.80
2015,09,25,13,30,12.80
2015,09,25,13,31,12.80
2015,09,25,13,32,12.90
2015,09,25,13,33,12.90
2015,09,25,13,34,12.90
2015,09,25,13,35,13.00
2015,09,25,13,36,13.10
2015,09,25,13,37,13.10
2015,09,25,13,38,13.10
2015,09,25,13,39,13.10
2015,09,25,13,40,13.10
2015,09,25,13,41,13.10
2015,09,25,13,42,13.10
2015,09,25,13,43,13.10
2015,09,25,13,44,13.10
2015,09,25,13,45,13.10
2015,09,25,13,46,13.10
2015,09,25,13,47,13.20
2015,09,25,13,48,13.20
2015,09,25,13,49,13.30
2015,09,25,13,50,13.40
2015,09,25,13,51,13.40
2015,09,25,13,52,13.50
2015,09,25,13,53,13.60
2015,09,25,13,54,13.80
2015,09,25,13,55,13.90
2015,09,25,13,56,14.00
2015,09,25,13,57,14.10
2015,09,25,13,58,14.20
2015,09,25,13,59,14.30
2015,09,25,14,00,14.40
2015,09,25,14,01,14.40
2015,09,25,14,02,14.50
2015,09,25,14,03,14.50
2015,09,25,14,04,14.60
2015,09,25,14,05,14.60
2015,09,25,14,06,14.60
2015,09,25,14,07,14.70
2015,09,25,14,08,14.70
2015,09,25,14,09,14.70
2015,09,25,14,10,14.70
2015,09,25,14,11,14.70
2015,09,25,14,12,14.70
2015,09,25,14,13,14.70
2015,09,25,14,14,14.70
2015,09,25,14,15,14.70
2015,09,25,14,16,14.70
2015,09,25,14,17,14.70
2015,09,25,14,18,14.70
2015,09,25,14,19,14.70
2015,09,25,14,20,14.60
2015,09,25,14,21,14.50
2015,09,25,14,22,14.50
2015,09,25,14,23,14.40
2015,09,25,14,24,14.40
2015,09,25,14,25,14.30
2015,09,25,14,26,14.30
2015,09,25,14,27,14.30
2015,09,25,14,28,14.20
2015,09,25,14,29,14.20
2015,09,25,14,30,14.20
2015,09,25,14,31,14.20
2015,09,25,14,32,14.10
2015,09,25,14,33,14.00
2015,09,25,14,34,13.90
2015,09,25,14,35,13.80
2015,09,25,14,36,13.80
2015,09,25,14,37,13.70
2015,09,25,14,38,13.70
2015,09,25,14,39,13.70
2015,09,25,14,40,13.70
2015,09,25,14,41,13.80
2015,09,25,14,42,13.80
2015,09,25,14,43,13.90
2015,09,25,14,44,14.00
2015,09,25,14,45,14.10
2015,09,25,14,46,14.20
2015,09,25,14,47,14.20
2015,09,25,14,48,14.20
2015,09,25,14,49,14.20
2015,09,25,14,50,14.20
2015,09,25,14,51,14.20
2015,09,25,14,52,14.20
2015,09,25,14,53,14.10
2015,09,25,14,54,14.00
2015,09,25,14,55,14.00
2015,09,25,14,56,14.00
2015,09,25,14,57,14.00
2015,09,25,14,58,14.00
2015,09,25,14,59,14.00
2015,09,25,15,00,13.90
2015,09,25,15,01,13.90
2015,09,25,15,02,13.90
2015,09,25,15,03,13.90
2015,09,25,15,04,13.90
2015,09,25,15,05,13.90
2015,09,25,15,06,13.90
2015,09,25,15,07,14.00
2015,09,25,15,08,14.00
2015,09,25,15,09,14.10
2015,09,25,15,10,14.10
2015,09,25,15,11,14.20
2015,09,25,15,12,14.20
2015,09,25,15,13,14.30
2015,09,25,15,14,14.30
2015,09,25,15,15,14.40
2015,09,25,15,16,14.40
2015,09,25,15,17,14.40
2015,09,25,15,18,14.40
2015,09,25,15,19,14.40
2015,09,25,15,20,14.40
2015,09,25,15,21,14.40
2015,09,25,15,22,14.40
2015,09,25,15,23,14.50
2015,09,25,15,24,14.50
2015,09,25,15,25,14.60
2015,09,25,15,26,14.60
2015,09,25,15,27,14.60
2015,09,25,15,28,14.70
2015,09,25,15,29,14.70
2015,09,25,15,30,14.70
2015,09,25,15,31,14.60
2015,09,25,15,32,14.60
2015,09,25,15,33,14.60
2015,09,25,15,34,14.60
2015,09,25,15,35,14.50
2015,09,25,15,36,14.50
2015,09,25,15,37,14.40
2015,09,25,15,38,14.30
2015,09,25,15,39,14.30
2015,09,25,15,40,14.20
2015,09,25,15,41,14.20
2015,09,25,15,42,14.20
2015,09,25,15,43,14.20
2015,09,25,15,44,14.20
2015,09,25,15,45,14.20
2015,09,25,15,46,14.20
2015,09,25,15,47,14.10
2015,09,25,15,48,14.10
2015,09,25,15,49,14.10
2015,09,25,15,50,14.10
2015,09,25,15,51,14.10
2015,09,25,15,52,14.10
2015,09,25,15,53,14.10
2015,09,25,15,54,14.10
2015,09,25,15,55,14.10
2015,09,25,15,56,14.10
2015,09,25,15,57,14.10
2015,09,25,15,58,14.10
2015,09,25,15,59,14.10
2015,09,25,16,00,14.00
2015,09,25,16,01,14.00
2015,09,25,16,02,13.90
2015,09,25,16,03,13.90
2015,09,25,16,04,13.90
2015,09,25,16,05,13.80
2015,09,25,16,06,13.80
2015,09,25,16,07,13.70
2015,09,25,16,08,13.70
2015,09,25,16,09,13.60
2015,09,25,16,10,13.50
2015,09,25,16,11,13.50
2015,09,25,16,12,13.40
2015,09,25,16,13,13.40
2015,09,25,16,14,13.40
2015,09,25,16,15,13.40
2015,09,25,16,16,13.30
2015,09,25,16,17,13.30
2015,09,25,16,18,13.20
2015,09,25,16,19,13.20
2015,09,25,16,20,13.10
2015,09,25,16,21,13.10
2015,09,25,16,22,13.00
2015,09,25,16,23,12.90
2015,09,25,16,24,12.90
2015,09,25,16,25,12.80
2015,09,25,16,26,12.80
2015,09,25,16,27,12.80
2015,09,25,16,28,12.80
2015,09,25,16,29,12.80
2015,09,25,16,30,12.80
2015,09,25,16,31,12.80
2015,09,25,16,32,12.80
2015,09,25,16,33,12.80
2015,09,25,16,34,12.80
2015,09,25,16,35,12.80
2015,09,25,16,36,12.90
2015,09,25,16,37,12.90
2015,09,25,16,38,12.90
2015,09,25,16,39,13.00
2015,09,25,16,40,13.00
2015,09,25,16,41,13.10
2015,09,25,16,42,13.20
2015,09,25,16,43,13.20
2015,09,25,16,44,13.20
2015,09,25,16,45,13.20
2015,09,25,16,46,13.20
2015,09,25,16,47,13.30
2015,09,25,16,48,13.30
2015,09,25,16,49,13.30
2015,09,25,16,50,13.30
2015,09,25,16,51,13.40
2015,09,25,16,52,13.30
2015,09,25,16,53,13.30
2015,09,25,16,54,13.30
2015,09,25,16,55,13.30
2015,09,25,16,56,13.30
2015,09,25,16,57,13.30
2015,09,25,16,58,13.30
2015,09,25,16,59,13.40
2015,09,25,17,00,13.40
2015,09,25,17,01,13.40
2015,09,25,17,02,13.40
2015,09,25,17,03,13.40
2015,09,25,17,04,13.40
2015,09,25,17,05,13.30
2015,09,25,17,06,13.30
2015,09,25,17,07,13.30
2015,09,25,17,08,13.20
2015,09,25,17,09,13.20
2015,09,25,17,10,13.20
2015,09,25,17,11,13.30
2015,09,25,17,12,13.30
2015,09,25,17,13,13.30
2015,09,25,17,14,13.30
2015,09,25,17,15,13.30
2015,09,25,17,16,13.30
2015,09,25,17,17,13.30
2015,09,25,17,18,13.40
2015,09,25,17,19,13.40
2015,09,25,17,20,13.40
2015,09,25,17,21,13.40
2015,09,25,17,22,13.40
2015,09,25,17,23,13.40
2015,09,25,17,24,13.30
2015,09,25,17,25,13.30
2015,09,25,17,26,13.30
2015,09,25,17,27,13.30
2015,09,25,17,28,13.20
2015,09,25,17,29,13.20
2015,09,25,17,30,13.20
2015,09,25,17,31,13.20
2015,09,25,17,32,13.20
2015,09,25,17,33,13.20
2015,09,25,17,34,13.20
2015,09,25,17,35,13.10
2015,09,25,17,36,13.10
2015,09,25,17,37,13.10
2015,09,25,17,38,13.00
2015,09,25,17,39,13.00
2015,09,25,17,40,12.90
2015,09,25,17,41,12.90
2015,09,25,17,42,12.90
2015,09,25,17,43,12.80
2015,09,25,17,44,12.80
2015,09,25,17,45,12.80
2015,09,25,17,46,12.80
2015,09,25,17,47,12.70
2015,09,25,17,48,12.70
2015,09,25,17,49,12.70
2015,09,25,17,50,12.60
2015,09,25,17,51,12.60
2015,09,25,17,52,12.50
2015,09,25,17,53,12.50
2015,09,25,17,54,12.40
2015,09,25,17,55,12.40
2015,09,25,17,56,12.30
2015,09,25,17,57,12.30
2015,09,25,17,58,12.30
2015,09,25,17,59,12.20
2015,09,25,18,00,12.20
2015,09,25,18,01,12.20
2015,09,25,18,02,12.10
2015,09,25,18,03,12.10
2015,09,25,18,04,12.10
2015,09,25,18,05,12.10
2015,09,25,18,06,12.10
2015,09,25,18,07,12.00
2015,09,25,18,08,12.00
2015,09,25,18,09,12.00
2015,09,25,18,10,11.90
2015,09,25,18,11,11.90
2015,09,25,18,12,11.90
2015,09,25,18,13,11.90
2015,09,25,18,14,11.90
2015,09,25,18,15,11.90
2015,09,25,18,16,11.80
2015,09,25,18,17,11.90
2015,09,25,18,18,11.90
2015,09,25,18,19,11.90
2015,09,25,18,20,11.90
2015,09,25,18,21,11.90
2015,09,25,18,22,11.90
2015,09,25,18,23,11.90
2015,09,25,18,24,11.90
2015,09,25,18,25,11.90
2015,09,25,18,26,11.90
2015,09,25,18,27,11.90
2015,09,25,18,28,11.80
2015,09,25,18,29,11.80
2015,09,25,18,30,11.80
2015,09,25,18,31,11.70
2015,09,25,18,32,11.70
2015,09,25,18,33,11.70
2015,09,25,18,34,11.60
2015,09,25,18,35,11.60
2015,09,25,18,36,11.50